www.pogodaiklimat.ru

Погода и климат >> Архив погоды >> Россия >> Ленинградская область >> Сосновый Бор


ПОГОДА в Сосновом Бору

  • Прогноз погоды в Сосновом Бору
  • Монитор погоды в Сосновом Бору

АРХИВ ПОГОДЫ в Сосновом Бору

Время (UTC), дата Ветер
(напр.,м/с)
 
Видим.   Явления Облачность Т
(С)
Тd
(С)
f
(%)
Тe
(С)
Тes
(С)
Комфортность P
(гПа)
Po
(гПа)
Тmin
(С)
Tmax
(С)
R
(мм)
R24
(мм)
S
(см)
18 16.08 штиль 0 н/о 1/0
[]
+14.4 +12.5 88 +14 +14 1016.9 1014.4 +19.5
21 16.08 штиль 0 н/о 1/0
[Ci fib]
+11.3 +10.5 95 +11 +11 1017.4 1014.9
00 17.08 штиль 0 н/о 3/0
[Cc]
+10.1 +9.3 95 +9 +9 1018.0 1015.5
03 17.08 штиль 0 50 км ?/? +12.1 +9.4 84 +12 +12 1018.0 1015.5 +10.0
06 17.08 Ю 3 н/о ясно +18.3 +11.3 64 +19 +22 1018.3 1015.9 +10.0
09 17.08 Ю 4 н/о 1/0
[]
+21.5 +9.7 47 +23 +29 комфорт 1018.2 1015.8
12 17.08 ЮЗ 2 н/о 1/0
[]
+23.5 +9.6 41 +24 +32 комфорт 1017.4 1015.0
15 17.08 Ю 3 н/о 1/0
[]
+23.4 +9.6 42 +25 +27 комфорт 1016.5 1014.1
18 17.08 ЮВ 2 н/о ясно +18.6 +11.3 62 +20 +20 1016.7 1014.3 +24.4
21 17.08 ЮВ 1 н/о ясно +12.6 +10.8 89 +13 +13 1016.7 1014.2
00 18.08 штиль 0 н/о ясно +10.8 +9.3 90 +10 +10 1016.8 1014.3
03 18.08 штиль 0 н/о ясно +8.9 +8.3 96 +8 +8 1016.0 1013.5 +8.7
09 18.08 В 3 н/о 9/9
[Cu Sc]
+21.9 +9.8 46 +23 +24 комфорт 1014.4 1012.0
15 18.08 ЮВ 2 н/о 10/8
[Sc Cs]
+23.0 +8.8 40 +24 +25 комфорт 1013.3 1010.9
21 18.08 ЮВ 2 н/о 8/0
[]
+14.3 1012.7 1010.2
00 19.08 ЮВ 2 н/о 10/0
[Ci fib]
+14.3 +12.4 88 +14 +14 1012.6 1010.1
03 19.08 ЮВ 3 н/о 8/3
[Sc Cc]
+14.2 +12.1 87 +13 +13 1011.7 1009.2 +13.8
06 19.08 ЮВ 4 н/о 8/3
[Sc diur, vesp Cc]
+18.5 +13.3 72 +19 +21 1010.8 1008.4 +13.8
09 19.08 ЮВ 4 н/о 10/0
[As trans]
+21.1 +13.4 61 +23 +26 комфорт 1009.6 1007.2
12 19.08 Ю 5
{10}
н/о 10/6
[St Cc]
+22.6 +14.6 61 +26 +28 жарко 1009.6 1007.2
15 19.08 ЮЗ 3 н/о 10/6
[Sc diur, vesp Cc]
+22.6 +16.6 69 +27 +28 душно 1011.0 1008.6
18 19.08 ЮЗ 1 н/о {ливн. осадки} 10/10
[Sc diur, vesp]
+16.6 +15.8 95 +17 +17 1013.3 1010.9 +23.2 6
21 19.08 В 2 н/о 10/3
[St Ac lent Cs]
+15.8 +15.2 96 +16 +16 1014.7 1012.3
00 20.08 Ю 2 н/о 10/6
[St Ac lent Cs]
+15.0 +14.5 97 +15 +15 1015.9 1013.4
03 20.08 Ю 2 н/о 1/0
[Ci fib]
+13.2 +12.7 97 +12 +12 1017.1 1014.6 +13.2
06 20.08 Ю 2 н/о 1/0
[Ci fib]
+16.3 +14.9 91 +16 +20 1018.8 1016.3 +13.2
09 20.08 ЮЗ 3 н/о 1/1
[Cu hum]
+20.2 +13.9 67 +23 +30 комфорт 1019.5 1017.1
12 20.08 СЗ 2 н/о 9/3
[Cu hum Cs]
+20.4 +14.2 68 +24 +28 комфорт 1020.1 1017.7
15 20.08 Ю 3 н/о 9/1
[Cu hum Ac lent Cs]
+21.2 +13.7 62 +24 +25 комфорт 1020.5 1018.1
18 20.08 Ю 4 н/о в посл. час ливневой дождь 9/8
[Cb cap Ac inh Ci fib]
+18.2 +14.7 80 +18 +18 1021.3 1018.9 +22.2 0.0
21 20.08 штиль 0 н/о 1/0
[]
+13.9 +13.3 96 +13 +13 1022.6 1020.1
00 21.08 Ю 1 н/о ясно +13.0 +12.5 97 +13 +13 1023.0 1020.5
03 21.08 Ю 2 н/о 3/0
[Ac lent Ci fib]
+12.4 +11.6 95 +11 +11 1024.0 1021.5 +12.4
06 21.08 Ю 1 н/о 10/0
[Cs]
+16.3 +13.6 84 +17 +20 1024.4 1021.9 +13.1
09 21.08 Ю 2 н/о 10/0
[As trans]
+18.5 +14.3 77 +20 +23 1024.2 1021.8
12 21.08 ЮВ 3 н/о 10/1
[Cu hum As trans]
+19.7 +13.8 69 +22 +24 комфорт 1023.2 1020.8
15 21.08 Ю 3 н/о слаб. дождь 10/0
[As op]
+17.6 +14.2 80 +18 +18 1021.7 1019.3
18 21.08 Ю 2 н/о слаб. дождь 10/8
[Frnb As op]
+15.0 +14.2 95 +15 +15 1021.8 1019.3 +19.7 2
21 21.08 ЮЗ 1 н/о сильн. морось {дождь} 10/10
[St]
+14.2 +13.9 98 +14 +14 1020.6 1018.1
00 22.08 Ю 1 н/о {дождь, морось} 3/0
[Ci fib]
+13.0 +12.7 98 +13 +13 1020.6 1018.1
03 22.08 Ю 2 н/о 1/1
[Cu Sc]
+12.9 +12.6 98 +12 +12 1020.7 1018.2 +12.7
06 22.08 ЮЗ 4 н/о 9/9
[Cu hum]
+16.2 +14.2 88 +15 +16 1021.4 1018.9 +12.7 1
09 22.08 З 3
{10}
н/о 8/8
[Cu med, cong]
+18.7 +14.5 77 +20 +21 1022.6 1020.2
12 22.08 З 3
{10}
н/о 3/3
[Cu med, cong]
+19.0 +13.9 72 +20 +25 1023.5 1021.1
15 22.08 З 4 н/о 1/0
[]
+18.9 +12.3 66 +20 +21 1024.1 1021.7
18 22.08 СЗ 2 н/о 1/0
[]
+15.9 +12.0 78 +16 +16 1024.5 1022.0 +20.0
21 22.08 Ю 2 н/о ясно +12.4 +11.1 92 +11 +11 1025.4 1022.9

 

Местоположение метеостанции Сосновый Бор (Ленинградская область, Россия): широта 59.82 долгота 29.17 высота над уровнем моря 21 м.

В архиве по умолчанию представлена погода в Сосновом Бору за последнюю неделю. Архивные данные за месяц целиком и за предыдущие месяцы, начиная с января 2011 года, Вы можете получить, выбрав интересующий диапазон дат из раскрывающегося списка и нажав кнопку "Ввод!".


*Определитесь, кто Вы:
робот инопланетянин человек

Внимание! Время в таблицах - всемирное. Для получения местного времени необходимо прибавить поправку, которая равна 3 ч.

Смотрите также архив погоды в соседних городах и на ближайших метеорологических станциях:

Погода в Шепелево (Ленинградская область, Россия) (7 км)
Погода в Ломоносове (город Санкт-Петербург, Россия) (36 км)
Погода в Кронштадте (город Санкт-Петербург, Россия) (37 км)
Погода в Озерках (Ленинградская область, Россия) (43 км)
Погода в Волосово (Ленинградская область, Россия) (47 км)
Погода в Лисьем Носу (город Санкт-Петербург, Россия) (50 км)
Погода в Рощино (Ленинградская область, Россия) (54 км)
Погода в Кингисеппе (Ленинградская область, Россия) (59 км)
Погода в Санкт-Петербурге (город Санкт-Петербург, Россия) (65 км)
Погода в Белогорке (Ленинградская область, Россия) (75 км)

Пояснения к столбцам:

Ветер - указаны скорость ветра в м/с - средняя за 10 мин, порывы в срок и между сроками (в фигурных скобках) и направление, откуда дует ветер: С - северный, СВ - северо-восточный, В - восточный, ЮВ - юго-восточный, Ю - южный, ЮЗ - юго-западный, З - западный, СЗ - северо-западный.
Видимость - горизонтальная дальность видимости в метрах или километрах. При видимости от 1 до 10 км при отсутствии осадков обычно наблюдается дымка, при ухудшении видимости до 1 км и менее - туман. В сухую погоду видимость может ухудшаться дымом, пылью или мглою.
Явления - указаны атмосферные явления, наблюдавшиеся в срок или в последний час перед сроком; фигурными скобками обозначены явления, наблюдавшиеся между сроками (за 1-3 часа до срока); квадратными скобками обозначены град или гололедные отложения с указанием их диаметра в мм.
Облачность - указаны через наклонную черту общая и нижняя облачность в баллах и высота нижней границы облаков в метрах; квадратными скобками обозначены формы облаков: Ci - перистые, Cs - перисто-слоистые, Cc - перисто-кучевые, Ac - высококучевые, As - высокослоистые, Sc - слоисто-кучевые, Ns - слоисто-дождевые, Cu - кучевые, Cb - кучево-дождевые. Подробнее классификацию облаков см. в Атласе облаков (PDF).
T - Температура воздуха - температура, измеренная на высоте 2 м над землей.
Td - Температура точки росы - температура, при понижении до которой содержащийся в воздухе водяной пар достигнет насыщения.
f - Относительная влажность воздуха - влажноcть воздуха, измеренная на высоте 2 м над землей.
Te - Эффективная температура - температура, которую ощущает одетый по сезону человек в тени. Характеристика душности погоды. При расчете учитывается влияние влажности воздуха и скорости ветра на теплоощущения человека.
Tes - Эффективная температура на солнце - температура, которую ощущает человек, с поправкой на солнечный нагрев. Характеристика знойности погоды. Зависит от высоты солнца над горизонтом, облачности и скорости ветра. Ночью, в пасмурную погоду, а также при ветре 12 м/с и более поправка равна нулю.
P - Атмосферное давление - приведенное к уровню моря атмосферное давление.
Po - Атмосферное давление - измеренное на уровне метеостанции атмосферное давление.
Tmin - Минимальная температура - минимум температуры воздуха на высоте 2 м над землей.
Tmax - Максимальная температура - максимум температуры воздуха на высоте 2 м над землей.
R - Количество осадков - Количество выпавших осадков за период времени, мм. При наведении курсора мыши на число - период времени, за который выпало указанное количество осадков.
R24 - Количество осадков - Количество выпавших осадков за 24 часа, мм.
S - Снежный покров - Высота снежного покрова, см. При наведении курсора мыши на число - состояние снежного покрова и степень покрытия местности в баллах.